Погода во Флоренции

Италия     43°46′47″N   11°15′56″E
темп.,
°C
ветер,
м/с
пор.,
м/с
влажн.,
%
обл.,
%
осадки,
мм/ч
давл.,
гПа
погр.,
м
17 мая, пн
пн1723:00+13ю269282 0.0 1008156
02:00+13ююв279399 0.4 1007258
05:00+14юз6149598 0.4 10061201
08:00+14зюз716837 0.9 10071583
11:00+17зюз7105240 0.1 10081646
14:00+19зюз574976 0.1 10091583
17:00+18зюз57515 0.0 10091439
20:00+15ююз36720 0.0 1011545
18 мая, вт
вт1823:00+12юв23850 0.0 101265
02:00+11юв118824 0.0 101339
05:00+10ююв119090 0.0 101521
08:00+14з1374100 0.0 1015417
11:00+18з36535 0.0 10151345
14:00+21з6936100 0.0 10132237
17:00+18зюз694426 0.0 10131505
20:00+15з39625 0.0 10141154
19 мая, ср
ср1923:00+13ююз196646 0.0 1014597
02:00+12зюз2117452 0.1 1015570
05:00+12ююз258885 0.2 1015395
08:00+13всв129352 0.8 1016188
11:00+17вюв126523 0.3 1017970
14:00+18юз22601 1.1 10161172
17:00+19зюз22523 0.9 10141516
20:00+15зюз25771 1.4 1014265
20 мая, чт
чт2023:00+12ю119093 0.5 101514
02:00+11св119885 3.0 101489
05:00+10св129550 0.5 101550
08:00+11ссв378760 0.6 1016391
11:00+15ссв486096 0.3 10171249
14:00+15ссв4655100 0.5 1018883
17:00+19св574017 0.0 10181790
20:00+16всв23580 0.0 102074
21 мая, пт
пт2123:00+12всв11670 0.0 102217
02:00+11вюв11715 0.0 102311
05:00+10в11712 0.0 102210
08:00+13всв11625 0.0 1023187
11:00+19зюз22465 0.0 1022872
14:00+21зюз453853 0.0 10211573
17:00+20зюз5739100 0.0 10201259
20:00+16юз2660100 0.0 1020436